Location: Holyhead Bay
(53.3667°N, 4.6667°W)
Time: 23:09:55
(UTC+00:00)

ADEOS Rocket - Pass Details

Date: 23 April 2021
Orbit: 859 x 1306 km, 98.7° (Epoch: 15 May)

Event Time Altitude Azimuth Distance (km) Brightness Sun altitude
Exits shadow 02:28:40 - 155° (SSE) 3,520 5.6 -18.3°
Reaches altitude 10° 02:30:19 10° 155° (SSE) 2,907 5.2 -18.2°
Maximum altitude 02:36:58 78° 70° (ENE) 1,190 3.5 -17.6°
Drops below altitude 10° 02:44:23 10° 346° (NNW) 3,224 6.2 -16.9°
Sets 02:47:10 0° 345° (NNW) 4,236 6.9 -16.7°
